DateTimeUTC,F1_A11,F1_S11,BsB_S11,BsG_S11,BsR_S11,BbsB_S11,BbsG_S11,BbsR_S11,BaB_A11,BaG_A11,BaR_A11,Tu_S11,T_S11,Uu_S11,U_S11,P_S11,T1_A11
2021-08-02T06:00:00Z,00000200,20000000,,,,,,,-000.40,-000.25,-000.20,18.0,25.2,02.3,01.5,0671.6,31.0
2021-08-02T06:01:00Z,00000200,20000000,,,,,,,0001.15,0001.22,0001.23,18.0,25.2,02.2,01.4,0671.6,31.0
2021-08-02T06:02:00Z,00000200,20000000,,,,,,,-000.74,-000.77,-000.71,18.0,25.2,02.3,01.5,0671.6,31.0
2021-08-02T06:03:00Z,00000200,60000000,,,,,,,0000.01,-000.56,-000.40,18.0,25.2,02.3,01.5,0671.6,31.0
2021-08-02T06:04:00Z,00000200,40000000,0000.51,0000.03,0000.15,0000.30,-000.17,-000.05,-000.36,0000.04,-000.29,18.3,25.0,01.9,01.2,0672.5,31.0
2021-08-02T06:05:00Z,00000200,01000000,-000.34,0000.19,-000.24,0000.26,0000.19,0000.04,-000.19,-000.26,-000.07,18.4,25.0,01.8,01.2,0672.6,31.0
2021-08-02T06:06:00Z,00000200,01000000,-000.55,0000.39,0000.20,0000.08,0000.27,0000.02,-000.14,-000.34,-000.43,18.4,25.0,01.8,01.2,0672.6,31.0
2021-08-02T06:07:00Z,00000200,01000000,-000.22,0000.21,0000.17,0000.39,-000.04,-000.02,-000.31,0000.12,0000.30,18.3,25.0,01.9,01.3,0672.6,31.0
2021-08-02T06:08:00Z,00000200,01000000,0000.78,-000.11,-000.22,-000.32,-000.08,-000.07,0000.50,-000.08,-000.13,18.3,24.9,01.7,01.1,0672.7,31.0
2021-08-02T06:09:00Z,00000200,01000000,-000.01,0000.31,-000.21,0000.59,0000.05,0000.08,-000.13,0000.15,-000.13,18.3,24.9,01.7,01.1,0672.7,31.0
2021-08-02T06:10:00Z,00000200,01000000,0000.40,-000.12,-000.06,0000.50,-000.22,-000.10,0000.04,-000.05,0000.26,18.2,24.9,01.8,01.2,0672.6,31.0
2021-08-02T06:11:00Z,00000200,01000000,0000.68,0000.11,-000.21,0000.60,-000.03,0000.18,0000.35,0000.15,-000.11,18.2,24.9,01.8,01.2,0672.6,31.0
2021-08-02T06:12:00Z,00000200,01000000,-000.23,0000.17,0000.14,0000.27,0000.01,0000.21,-000.16,0000.02,0000.27,18.2,24.9,01.8,01.2,0672.6,30.9
2021-08-02T06:13:00Z,00000200,00000000,-000.01,0000.24,0000.07,-000.02,0000.04,0000.13,0000.12,0000.00,-000.00,18.2,24.8,01.9,01.3,0672.6,30.9
2021-08-02T06:14:00Z,00000200,00000000,0000.48,0000.44,0000.01,0000.08,0000.25,-000.07,0000.02,0000.06,0000.26,18.2,24.8,01.9,01.3,0672.6,31.0
2021-08-02T06:15:00Z,00000200,01000000,0000.52,0000.34,0000.34,0000.43,0000.12,0000.21,0000.10,-000.07,-000.37,18.2,24.8,01.9,01.3,0672.5,31.0
2021-08-02T06:16:00Z,00000200,00000000,0000.68,0000.38,-000.09,0000.31,-000.15,0000.01,0000.23,0000.39,0000.64,18.1,24.8,02.0,01.3,0672.5,31.0
2021-08-02T06:17:00Z,00000200,00000000,0000.77,0000.67,0000.30,0000.58,-000.02,-000.11,0000.35,0000.56,0000.15,18.2,24.8,02.1,01.4,0672.6,31.0
2021-08-02T06:18:00Z,00000200,01000000,0000.41,0000.99,0000.53,0000.45,0000.32,-000.19,0000.44,0000.25,0000.38,18.2,24.8,02.1,01.4,0672.6,31.0
2021-08-02T06:19:00Z,00000200,00000000,0000.57,0000.06,0000.28,-000.03,-000.04,-000.07,0000.12,0000.56,0000.12,18.3,24.9,02.2,01.5,0672.6,31.0
2021-08-02T06:20:00Z,00000200,00000000,0000.11,0000.33,0000.19,-000.11,-000.01,-000.25,0000.71,0000.25,0000.48,18.3,24.9,02.2,01.5,0672.6,31.0
2021-08-02T06:21:00Z,00000200,00000000,-000.23,0000.17,0000.20,-000.02,0000.21,-000.06,0000.08,-000.30,-000.26,18.3,24.9,02.3,01.6,0672.6,31.0
2021-08-02T06:22:00Z,00000200,00000000,-000.28,-000.03,0000.23,0000.37,-000.20,0000.20,-000.16,-000.07,0000.08,18.3,24.9,02.3,01.6,0672.6,31.0
2021-08-02T06:23:00Z,00000200,00000000,0000.57,0000.42,0000.53,0000.62,0000.25,0000.14,0000.18,0000.33,0000.51,18.3,24.8,02.4,01.6,0672.5,31.0
2021-08-02T06:24:00Z,00000200,00000000,0002.97,0002.39,0000.99,0000.27,0000.15,0000.43,0000.66,0000.64,0000.24,18.3,24.8,02.5,01.6,0672.5,31.0
2021-08-02T06:25:00Z,00000200,00000000,0002.73,0002.45,0001.25,-000.21,0000.22,0000.05,0000.67,0000.82,0000.63,18.2,24.8,02.5,01.7,0672.5,31.0
2021-08-02T06:26:00Z,00000200,00000000,0001.31,0001.39,0000.43,0000.62,-000.06,0000.40,0000.59,0000.62,0000.15,18.2,24.8,02.5,01.7,0672.5,31.0
2021-08-02T06:27:00Z,00000200,00000000,0002.05,0001.03,0000.49,0000.83,0000.39,0000.42,0000.51,0000.24,0000.47,18.2,24.8,02.6,01.8,0672.5,31.0
2021-08-02T06:28:00Z,00000200,00000000,0000.25,0000.61,0000.20,0000.55,-000.05,0000.02,-000.20,0000.06,-000.09,18.2,24.8,02.6,01.7,0672.5,31.0
2021-08-02T06:29:00Z,00000200,00000000,0000.92,0000.28,0000.00,0000.19,-000.01,0000.21,0000.02,-000.05,-000.17,18.2,24.7,02.6,01.7,0672.6,31.0
2021-08-02T06:30:00Z,00000200,00000000,0000.03,0000.15,0000.18,0000.88,0000.08,-000.13,0000.17,0000.06,0000.32,18.1,24.7,02.5,01.7,0672.6,31.0
2021-08-02T06:31:00Z,00000200,00000000,0000.82,0000.74,0000.11,0000.60,0000.17,0000.16,0001.68,0001.61,0001.55,18.1,24.7,03.0,02.0,0672.6,31.0
2021-08-02T06:32:00Z,00000200,00000000,0000.75,0000.41,0000.32,0000.20,0000.29,0000.30,-000.02,-000.03,-000.15,18.1,24.7,03.1,02.1,0672.6,31.0
2021-08-02T06:33:00Z,00000200,00000000,-000.11,0000.54,0000.12,-000.08,0000.09,-000.02,-000.38,-000.38,-000.21,18.2,24.7,02.7,01.8,0672.6,31.0
2021-08-02T06:34:00Z,00000200,00000000,0000.13,0000.20,0000.10,0000.44,-000.03,-000.08,-000.09,-000.11,-000.45,18.3,24.8,02.6,01.7,0672.6,31.0
2021-08-02T06:35:00Z,00000200,00000000,0000.28,0000.56,0000.03,0000.53,0000.02,0000.05,0000.32,0000.42,0000.35,18.4,24.9,02.6,01.7,0672.6,31.0
2021-08-02T06:36:00Z,00000200,00000000,0001.35,0000.39,0000.42,-000.19,0000.05,0000.31,0000.43,0000.27,0000.55,18.4,24.9,02.6,01.7,0672.5,31.0
2021-08-02T06:37:00Z,00000200,00000000,0000.78,0000.69,0000.34,0000.19,-000.21,0000.36,0000.16,0000.20,0000.07,18.4,24.9,02.6,01.8,0672.5,31.0
2021-08-02T06:38:00Z,00000200,00000000,0000.80,0000.24,0000.08,0000.25,0000.13,-000.20,-000.09,0000.18,-000.02,18.4,24.9,02.6,01.7,0672.5,31.0
2021-08-02T06:39:00Z,00000200,00000000,0000.29,0000.40,0000.15,0000.63,0000.20,0000.12,-000.08,-000.53,-000.32,18.4,24.9,02.6,01.7,0672.5,31.0
2021-08-02T06:40:00Z,00000200,00000000,0000.33,0000.73,0000.30,0000.25,-000.00,0000.15,0000.10,0000.08,-000.07,18.4,24.8,02.6,01.8,0672.5,31.0
2021-08-02T06:41:00Z,00000200,00000000,0000.22,0000.70,0000.56,0000.24,0000.34,-000.02,0000.38,0000.15,0000.33,18.3,24.8,02.5,01.7,0672.5,31.0
2021-08-02T06:42:00Z,00000200,00000000,0000.67,0000.47,0000.14,-000.07,0000.16,0000.44,0000.10,0000.20,-000.08,18.3,24.8,02.5,01.7,0672.5,31.0
2021-08-02T06:43:00Z,00000200,00000000,0000.67,0000.25,-000.33,-000.06,0000.05,-000.06,-000.25,-000.20,-000.20,18.3,24.8,02.5,01.7,0672.6,31.0
2021-08-02T06:44:00Z,00000200,00000000,-000.50,0000.47,-000.10,0000.33,0000.15,-000.05,0000.28,0000.16,0000.25,18.3,24.8,02.6,01.8,0672.6,31.0
2021-08-02T06:45:00Z,00000200,00000000,0001.56,0000.53,0000.69,0000.48,-000.06,0000.14,0000.33,0000.30,0000.43,18.2,24.8,02.7,01.8,0672.5,31.0
2021-08-02T06:46:00Z,00000200,00000000,0000.68,0000.57,-000.06,0000.31,-000.11,-000.09,-000.09,0000.37,0000.25,18.2,24.8,02.7,01.8,0672.5,31.0
2021-08-02T06:47:00Z,00000200,00000000,0000.44,0000.35,0000.25,0000.74,-000.16,0000.05,0000.45,0000.26,0000.08,18.2,24.8,02.7,01.8,0672.6,31.0
2021-08-02T06:48:00Z,00000200,00000000,0000.84,0000.86,0000.40,0000.22,0000.04,0000.07,0000.43,0000.24,0000.15,18.3,24.8,02.6,01.8,0672.5,31.0
2021-08-02T06:49:00Z,00000200,00000000,0002.20,0001.91,0000.86,0000.10,0000.07,0000.32,0000.73,0000.51,0000.40,18.4,24.8,02.7,01.8,0672.5,31.0
2021-08-02T06:50:00Z,00000200,00000000,0001.45,0001.48,0000.86,0000.63,0000.40,0000.41,0000.28,0000.57,0000.74,18.4,24.8,02.8,01.9,0672.5,31.0
2021-08-02T06:51:00Z,00000200,00000000,0001.33,0001.22,0000.57,0000.86,0000.06,-000.14,0000.52,0000.20,-000.38,18.4,24.8,02.8,01.9,0672.5,31.0
2021-08-02T06:52:00Z,00000200,00000000,0000.09,0000.24,0000.08,-000.12,0000.02,0000.02,-000.39,0000.07,0000.35,18.4,24.8,02.8,01.9,0672.5,31.0
2021-08-02T06:53:00Z,00000200,00000000,-000.18,0000.29,0000.06,0000.11,0000.14,0000.26,0000.34,0000.20,-000.34,18.3,24.8,02.6,01.8,0672.5,31.0
2021-08-02T06:54:00Z,00000200,00000000,0001.34,0001.04,0000.44,0000.42,0000.10,-000.05,0000.18,-000.10,0000.03,18.3,24.8,02.6,01.8,0672.5,31.0
2021-08-02T06:55:00Z,00000200,00000000,0002.61,0002.10,0001.15,0000.77,0000.29,0000.15,0000.84,0000.90,0000.56,18.3,24.8,02.7,01.8,0672.5,31.0
2021-08-02T06:56:00Z,00000200,00000000,0001.67,0001.71,0001.26,0000.71,0000.25,0000.25,0000.63,0000.87,0000.85,18.3,24.8,02.8,01.9,0672.5,31.0
2021-08-02T06:57:00Z,00000200,40000000,,,,,,,0000.25,-000.17,-000.19,18.3,24.8,03.3,02.2,0672.5,31.0
2021-08-02T06:58:00Z,00000200,60000000,,,,,,,-000.31,0000.01,0000.09,18.0,24.9,02.6,01.7,0671.5,30.9
2021-08-02T06:59:00Z,00000200,20000000,,,,,,,-000.08,-000.21,-000.02,18.0,25.0,02.6,01.7,0671.5,31.0
